Time,TemperatureF,DewpointF,PressureIn,WindDirection,WindDirectionDegrees,WindSpeedMPH,WindSpeedGustMPH,Humidity,HourlyPrecipIn,Conditions,Clouds,dailyrainin,SoftwareType,DateUTC
2013-07-26 00:07:00,69.1,65.7,29.85,SSE,157,0.0,-999.0,89,-99.99,,,0.00,Acu-Link.com,2013-07-26 04:07:00,
2013-07-26 00:22:00,68.5,65.1,29.85,SSE,157,0.0,-999.0,89,-99.99,,,0.00,Acu-Link.com,2013-07-26 04:22:00,
2013-07-26 00:37:00,68.0,65.0,29.85,SSE,157,0.0,-999.0,90,-99.99,,,0.00,Acu-Link.com,2013-07-26 04:37:00,
2013-07-26 00:52:00,67.8,64.8,29.85,SSE,157,0.0,-999.0,90,-99.99,,,0.00,Acu-Link.com,2013-07-26 04:52:00,
2013-07-26 01:07:00,67.3,64.3,29.85,SSE,157,0.0,-999.0,90,-99.99,,,0.00,Acu-Link.com,2013-07-26 05:07:00,
2013-07-26 01:22:00,67.3,64.6,29.85,SSE,157,0.0,-999.0,91,-99.99,,,0.00,Acu-Link.com,2013-07-26 05:22:00,
2013-07-26 01:37:00,66.9,64.2,29.85,ESE,112,0.0,-999.0,91,-99.99,,,0.00,Acu-Link.com,2013-07-26 05:37:00,
2013-07-26 01:53:00,66.6,63.9,29.85,ESE,112,0.0,-999.0,91,-99.99,,,0.00,Acu-Link.com,2013-07-26 05:53:00,
2013-07-26 02:08:00,66.2,63.5,29.85,ESE,112,0.0,-999.0,91,-99.99,,,0.00,Acu-Link.com,2013-07-26 06:08:00,
2013-07-26 02:23:00,66.2,63.5,29.85,ESE,112,0.0,-999.0,91,-99.99,,,0.00,Acu-Link.com,2013-07-26 06:23:00,
2013-07-26 02:38:00,65.8,63.1,29.85,ESE,112,0.0,-999.0,91,-99.99,,,0.00,Acu-Link.com,2013-07-26 06:38:00,
2013-07-26 02:53:00,65.3,62.9,29.85,ESE,112,0.0,-999.0,92,-99.99,,,0.00,Acu-Link.com,2013-07-26 06:53:00,
2013-07-26 03:08:00,65.1,63.0,29.84,ESE,112,0.0,-999.0,93,-99.99,,,0.00,Acu-Link.com,2013-07-26 07:08:00,
2013-07-26 03:23:00,64.9,62.8,29.84,ESE,112,0.0,-999.0,93,-99.99,,,0.00,Acu-Link.com,2013-07-26 07:23:00,
2013-07-26 03:38:00,64.6,62.5,29.84,ESE,112,0.0,-999.0,93,-99.99,,,0.00,Acu-Link.com,2013-07-26 07:38:00,
2013-07-26 03:53:00,64.4,62.3,29.84,ESE,112,0.0,-999.0,93,-99.99,,,0.00,Acu-Link.com,2013-07-26 07:53:00,
2013-07-26 04:09:00,64.2,62.4,29.84,ESE,112,0.0,-999.0,94,-99.99,,,0.00,Acu-Link.com,2013-07-26 08:09:00,
2013-07-26 04:24:00,64.0,62.5,29.85,ESE,112,0.0,-999.0,95,-99.99,,,0.00,Acu-Link.com,2013-07-26 08:24:00,
2013-07-26 04:39:00,64.0,62.5,29.85,ESE,112,0.0,-999.0,95,-99.99,,,0.00,Acu-Link.com,2013-07-26 08:39:00,
2013-07-26 04:54:00,63.7,61.9,29.84,NE,45,0.0,-999.0,94,-99.99,,,0.00,Acu-Link.com,2013-07-26 08:54:00,
2013-07-26 05:09:00,63.5,61.7,29.84,ESE,112,0.0,-999.0,94,-99.99,,,0.00,Acu-Link.com,2013-07-26 09:09:00,
2013-07-26 05:24:00,63.0,61.2,29.85,ESE,112,0.0,-999.0,94,-99.99,,,0.00,Acu-Link.com,2013-07-26 09:24:00,
2013-07-26 05:39:00,63.0,61.5,29.86,ESE,112,0.0,-999.0,95,-99.99,,,0.00,Acu-Link.com,2013-07-26 09:39:00,
2013-07-26 05:55:00,62.6,61.4,29.86,NE,45,0.0,-999.0,96,-99.99,,,0.00,Acu-Link.com,2013-07-26 09:55:00,
2013-07-26 06:10:00,62.4,61.2,29.86,ESE,112,0.0,-999.0,96,-99.99,,,0.00,Acu-Link.com,2013-07-26 10:10:00,
2013-07-26 06:25:00,62.2,61.3,29.87,ENE,67,0.0,-999.0,97,-99.99,,,0.00,Acu-Link.com,2013-07-26 10:25:00,
2013-07-26 06:40:00,61.9,61.0,29.88,ENE,67,0.0,-999.0,97,-99.99,,,0.00,Acu-Link.com,2013-07-26 10:40:00,
2013-07-26 06:55:00,61.9,61.3,29.89,NE,45,0.0,-999.0,98,-99.99,,,0.00,Acu-Link.com,2013-07-26 10:55:00,
2013-07-26 07:10:00,61.9,61.3,29.90,NE,45,0.0,-999.0,98,-99.99,,,0.00,Acu-Link.com,2013-07-26 11:10:00,
2013-07-26 07:25:00,62.1,61.5,29.88,NE,45,0.0,-999.0,98,-99.99,,,0.00,Acu-Link.com,2013-07-26 11:25:00,
2013-07-26 07:40:00,62.4,61.8,29.88,NE,45,0.0,-999.0,98,-99.99,,,0.00,Acu-Link.com,2013-07-26 11:40:00,
2013-07-26 07:55:00,62.8,62.5,29.87,ESE,112,0.0,-999.0,99,-99.99,,,0.00,Acu-Link.com,2013-07-26 11:55:00,
2013-07-26 08:11:00,63.9,63.6,29.88,SSE,157,0.0,-999.0,99,-99.99,,,0.00,Acu-Link.com,2013-07-26 12:11:00,
2013-07-26 08:26:00,65.5,65.2,29.89,SSE,157,0.0,-999.0,99,-99.99,,,0.00,Acu-Link.com,2013-07-26 12:26:00,
2013-07-26 08:41:00,67.3,67.0,29.89,ESE,112,0.0,-999.0,99,-99.99,,,0.00,Acu-Link.com,2013-07-26 12:41:00,
2013-07-26 08:56:00,68.9,67.4,29.90,SSE,157,0.0,-999.0,95,-99.99,,,0.00,Acu-Link.com,2013-07-26 12:56:00,
2013-07-26 09:11:00,69.8,68.0,29.90,SSE,157,0.0,-999.0,94,-99.99,,,0.00,Acu-Link.com,2013-07-26 13:11:00,
2013-07-26 09:26:00,70.3,67.2,29.91,NE,45,0.0,-999.0,90,-99.99,,,0.00,Acu-Link.com,2013-07-26 13:26:00,
2013-07-26 09:42:00,71.4,67.0,29.91,East,90,0.0,-999.0,86,-99.99,,,0.00,Acu-Link.com,2013-07-26 13:42:00,
2013-07-26 09:57:00,72.5,67.7,29.91,SSE,157,0.0,-999.0,85,-99.99,,,0.00,Acu-Link.com,2013-07-26 13:57:00,
2013-07-26 10:12:00,73.9,68.0,29.90,NE,45,0.0,-999.0,82,-99.99,,,0.00,Acu-Link.com,2013-07-26 14:12:00,
2013-07-26 10:27:00,74.7,68.1,29.90,NNE,22,0.0,-999.0,80,-99.99,,,0.00,Acu-Link.com,2013-07-26 14:27:00,
2013-07-26 10:42:00,74.5,67.9,29.90,North,0,0.0,-999.0,80,-99.99,,,0.00,Acu-Link.com,2013-07-26 14:42:00,
2013-07-26 10:57:00,73.6,67.8,29.90,North,0,1.7,-999.0,82,-99.99,,,0.00,Acu-Link.com,2013-07-26 14:57:00,
2013-07-26 11:12:00,74.1,67.9,29.90,North,0,1.7,-999.0,81,-99.99,,,0.00,Acu-Link.com,2013-07-26 15:12:00,
2013-07-26 11:27:00,74.5,69.0,29.89,North,0,1.7,-999.0,83,-99.99,,,0.00,Acu-Link.com,2013-07-26 15:27:00,
2013-07-26 11:42:00,76.5,69.1,29.90,NNE,22,1.7,-999.0,78,-99.99,,,0.00,Acu-Link.com,2013-07-26 15:42:00,
2013-07-26 11:57:00,76.5,69.9,29.88,North,0,0.0,-999.0,80,-99.99,,,0.00,Acu-Link.com,2013-07-26 15:57:00,
2013-07-26 12:13:00,77.4,70.0,29.88,North,0,0.0,-999.0,78,-99.99,,,0.00,Acu-Link.com,2013-07-26 16:13:00,
2013-07-26 12:28:00,78.8,71.0,29.89,NNW,337,3.2,-999.0,77,-99.99,,,0.00,Acu-Link.com,2013-07-26 16:28:00,
2013-07-26 12:43:00,80.6,72.3,29.88,North,0,3.2,-999.0,76,-99.99,,,0.00,Acu-Link.com,2013-07-26 16:43:00,
2013-07-26 12:58:00,80.6,71.1,29.87,NNE,22,0.0,-999.0,73,-99.99,,,0.00,Acu-Link.com,2013-07-26 16:58:00,
2013-07-26 13:13:00,83.1,73.9,29.86,West,270,2.7,-999.0,74,-99.99,,,0.00,Acu-Link.com,2013-07-26 17:13:00,
2013-07-26 13:28:00,82.4,72.0,29.86,NNE,22,1.7,-999.0,71,-99.99,,,0.00,Acu-Link.com,2013-07-26 17:28:00,
2013-07-26 13:43:00,83.5,72.7,29.85,East,90,2.7,-999.0,70,-99.99,,,0.00,Acu-Link.com,2013-07-26 17:43:00,
2013-07-26 13:58:00,84.4,73.1,29.85,NNW,337,1.7,-999.0,69,-99.99,,,0.00,Acu-Link.com,2013-07-26 17:58:00,
2013-07-26 14:13:00,86.0,72.8,29.84,SE,135,2.2,-999.0,65,-99.99,,,0.00,Acu-Link.com,2013-07-26 18:13:00,
2013-07-26 14:29:00,86.5,71.9,29.83,ENE,67,2.2,-999.0,62,-99.99,,,0.00,Acu-Link.com,2013-07-26 18:29:00,
2013-07-26 14:44:00,84.7,72.9,29.82,NNW,337,2.7,-999.0,68,-99.99,,,0.00,Acu-Link.com,2013-07-26 18:44:00,
2013-07-26 14:59:00,87.4,71.3,29.82,WNW,292,1.7,-999.0,59,-99.99,,,0.00,Acu-Link.com,2013-07-26 18:59:00,
2013-07-26 15:14:00,88.5,71.8,29.81,ESE,112,2.2,-999.0,58,-99.99,,,0.00,Acu-Link.com,2013-07-26 19:14:00,
2013-07-26 15:29:00,88.2,71.0,29.81,WNW,292,2.7,-999.0,57,-99.99,,,0.00,Acu-Link.com,2013-07-26 19:29:00,
2013-07-26 15:44:00,89.2,69.8,29.80,North,0,2.2,-999.0,53,-99.99,,,0.00,Acu-Link.com,2013-07-26 19:44:00,
2013-07-26 15:59:00,88.9,68.4,29.80,NNW,337,3.7,-999.0,51,-99.99,,,0.00,Acu-Link.com,2013-07-26 19:59:00,
2013-07-26 16:14:00,89.6,67.3,29.80,SSE,157,3.2,-999.0,48,-99.99,,,0.00,Acu-Link.com,2013-07-26 20:14:00,
2013-07-26 16:29:00,90.0,67.6,29.79,ESE,112,3.7,-999.0,48,-99.99,,,0.00,Acu-Link.com,2013-07-26 20:29:00,
2013-07-26 16:45:00,89.6,69.0,29.79,North,0,2.2,-999.0,51,-99.99,,,0.00,Acu-Link.com,2013-07-26 20:45:00,
2013-07-26 17:00:00,90.7,70.0,29.78,NW,315,0.0,-999.0,51,-99.99,,,0.00,Acu-Link.com,2013-07-26 21:00:00,
2013-07-26 17:15:00,87.8,73.1,29.78,SSE,157,0.0,-999.0,62,-99.99,,,0.00,Acu-Link.com,2013-07-26 21:15:00,
2013-07-26 17:30:00,87.4,72.8,29.79,West,270,0.0,-999.0,62,-99.99,,,0.00,Acu-Link.com,2013-07-26 21:30:00,
2013-07-26 17:45:00,91.2,74.3,29.79,SSE,157,1.7,-999.0,58,-99.99,,,0.00,Acu-Link.com,2013-07-26 21:45:00,
2013-07-26 18:00:00,92.1,72.5,29.78,East,90,1.1,-999.0,53,-99.99,,,0.00,Acu-Link.com,2013-07-26 22:00:00,
2013-07-26 18:15:00,91.2,71.1,29.79,SE,135,2.2,-999.0,52,-99.99,,,0.00,Acu-Link.com,2013-07-26 22:15:00,
2013-07-26 18:30:00,93.6,72.7,29.78,SE,135,2.7,-999.0,51,-99.99,,,0.00,Acu-Link.com,2013-07-26 22:30:00,
2013-07-26 18:45:00,93.6,72.1,29.79,South,180,0.0,-999.0,50,-99.99,,,0.00,Acu-Link.com,2013-07-26 22:45:00,
2013-07-26 19:01:00,91.6,71.4,29.78,South,180,2.2,-999.0,52,-99.99,,,0.00,Acu-Link.com,2013-07-26 23:01:00,
2013-07-26 19:16:00,90.3,71.4,29.79,SSE,157,1.7,-999.0,54,-99.99,,,0.00,Acu-Link.com,2013-07-26 23:16:00,
2013-07-26 19:31:00,90.3,70.2,29.78,SSE,157,0.0,-999.0,52,-99.99,,,0.00,Acu-Link.com,2013-07-26 23:31:00,
2013-07-26 19:46:00,87.8,68.5,29.78,SSE,157,2.2,-999.0,53,-99.99,,,0.00,Acu-Link.com,2013-07-26 23:46:00,
2013-07-26 20:01:00,86.2,69.7,29.79,ESE,112,0.0,-999.0,58,-99.99,,,0.00,Acu-Link.com,2013-07-27 00:01:00,
2013-07-26 20:16:00,83.1,69.2,29.79,SSE,157,0.0,-999.0,63,-99.99,,,0.00,Acu-Link.com,2013-07-27 00:16:00,
2013-07-26 20:31:00,81.0,69.8,29.79,SSE,157,0.0,-999.0,69,-99.99,,,0.00,Acu-Link.com,2013-07-27 00:31:00,
2013-07-26 21:17:00,75.0,68.4,29.80,South,180,0.0,-999.0,80,-99.99,,,0.00,Acu-Link.com,2013-07-27 01:17:00,
2013-07-26 21:32:00,73.9,68.4,29.80,West,270,0.0,-999.0,83,-99.99,,,0.00,Acu-Link.com,2013-07-27 01:32:00,
2013-07-26 21:47:00,72.7,67.6,29.80,West,270,0.0,-999.0,84,-99.99,,,0.00,Acu-Link.com,2013-07-27 01:47:00,
2013-07-26 22:02:00,72.1,67.0,29.81,West,270,0.0,-999.0,84,-99.99,,,0.00,Acu-Link.com,2013-07-27 02:02:00,
2013-07-26 22:17:00,71.4,68.3,29.81,NNW,337,0.0,-999.0,90,-99.99,,,0.00,Acu-Link.com,2013-07-27 02:17:00,
2013-07-26 22:32:00,70.9,67.5,29.81,NNW,337,0.0,-999.0,89,-99.99,,,0.00,Acu-Link.com,2013-07-27 02:32:00,
2013-07-26 22:47:00,70.5,67.4,29.81,NNW,337,0.0,-999.0,90,-99.99,,,0.00,Acu-Link.com,2013-07-27 02:47:00,
2013-07-26 23:02:00,70.3,67.5,29.81,NNW,337,0.0,-999.0,91,-99.99,,,0.00,Acu-Link.com,2013-07-27 03:02:00,
2013-07-26 23:17:00,70.2,67.4,29.81,NNW,337,0.0,-999.0,91,-99.99,,,0.00,Acu-Link.com,2013-07-27 03:17:00,
2013-07-26 23:33:00,70.2,67.8,29.81,NNW,337,0.0,-999.0,92,-99.99,,,0.00,Acu-Link.com,2013-07-27 03:33:00,
2013-07-26 23:48:00,70.0,67.6,29.81,NNW,337,0.0,-999.0,92,-99.99,,,0.00,Acu-Link.com,2013-07-27 03:48:00,